Location: Doussal
(55.6167°N, 116.8333°W)
Time: 03:47:03
(UTC+00:00)

METEOR M2 - Pass Details

Date: 11 December 2023
Orbit: 818 x 826 km, 98.4° (Epoch: 25 February)

Event Time Altitude Azimuth Distance (km) Brightness Sun altitude
Rises 00:51:42 0° 175° (S) 3,355 ? -12.3°
Reaches altitude 10° 00:54:05 10° 179° (S) 2,426 ? -12.6°
Maximum altitude 00:59:23 59° 259° (WSW) 956 ? -13.3°
Drops below altitude 10° 01:04:44 10° 339° (NNW) 2,440 ? -14.0°
Sets 01:07:08 0° 343° (NNW) 3,377 ? -14.3°
